Location: Central Falls
(41.8900°N, 71.3929°W)
Time: 14:13:19
(UTC+00:00)

Vanguard 1 - Pass Details

Date: 11 December 2023
Orbit: 653 x 3826 km, 34.3° (Epoch: 24 February)

Event Time Altitude Azimuth Distance (km) Brightness Sun altitude
Rises 23:13:21 0° 261° (W) 5,372 15.4 -21.3°
Reaches altitude 10° 23:16:16 10° 259° (WSW) 4,704 14.7 -21.9°
Maximum altitude 23:30:46 68° 180° (S) 3,323 12.6 -24.5°
Enters shadow 23:45:10 28° 109° (ESE) 5,383 13.3 -27.2°
Drops below altitude 10° 23:53:29 10° 105° (ESE) 6,930 - -28.7°
Sets 23:58:57 0° 103° (ESE) 7,928 - -29.7°
